Regional Weather Roundup
Issued by NWS

Home | Current Version | Previous Version | Text Only | Print | Product List | Glossary On
Versions: 1 2 3 4 5 6 7 8 9 10 11 12 13 14 15 16 17 18 19 20 21 22 23 24 25 26 27 28 29 30 31 32 33 34 35 36 37 38 39 40 41 42 43 44 45 46 47 48 49 50
000
ASUS43 KLMK 300510
RWRKY
KENTUCKY REGIONAL WEATHER ROUNDUP
NATIONAL WEATHER SERVICE LOUISVILLE KY
100 AM EDT TUE MAY 30 2017

NOTE "FAIR" INDICATES FEW OR NO CLOUDS BELOW 12,000 FEET
WITH NO SIGNIFICANT WEATHER AND/OR OBSTRUCTIONS TO VISIBILITY.

KYZ001>023-026-027-061>063-070>075-300600-
WESTERN AND SOUTH CENTRAL KENTUCKY

CITY           SKY/WX    TMP DP  RH WIND       PRES   REMARKS
PADUCAH        MOCLDY    67  61  81 N3        29.99R
HENDERSON      CLOUDY    63  61  93 CALM      29.99S
OWENSBORO      CLOUDY    65  59  81 SE8       30.00F
HOPKINSVILLE   CLOUDY    68  65  90 S7        30.01R
BOWLING GREEN  PTCLDY    70  63  78 SW6       30.02R
GLASGOW        CLOUDY    68  64  86 S3        30.02R
$$

KYZ024-025-028>034-038-045-046-053-300600-
NORTH CENTRAL KENTUCKY

CITY           SKY/WX    TMP DP  RH WIND       PRES   REMARKS
LOUISVILLE/SDF MOCLDY    73  58  59 S8        29.96S
LOUISVILLE/LOU CLOUDY    71  61  70 S5        29.97S
FORT KNOX      CLOUDY    67  59  75 SW10      29.99R
$$

KYZ035>037-039>044-047>052-055>060-089>105-300600-
NORTHEAST KENTUCKY

CITY           SKY/WX    TMP DP  RH WIND       PRES   REMARKS
LEXINGTON      PTCLDY    68  60  75 S9        30.00S
COVINGTON      MOCLDY    67  57  70 S8        29.95S
FRANKFORT      CLOUDY    68  60  75 SW7       29.98R
$$

KYZ054-064>069-076>088-106>120-300600-
SOUTHEAST KENTUCKY

CITY           SKY/WX    TMP DP  RH WIND       PRES   REMARKS
JACKSON        CLOUDY    67  60  78 CALM      30.04R
LONDON         CLOUDY    63  60  90 CALM      30.05R
SOMERSET       PTCLDY    63  63 100 CALM      30.06R
MIDDLESBORO    CLOUDY    63  63  98 CALM      30.07S
MONTICELLO     PTCLDY    63  61  93 W10       30.07R
$$




USA.gov is the U.S. government's official web portal to all federal, state and local government web resources and services.